This demonstration page uses our WeatherBlox Daily Observations layout. Learn more.

Hourly Observations for October 3, 2015

Temp ( °F °C ) Dew Point ( °F °C ) Humidity (%) Winds ( mph kmh ) Pressure ( in mb ) Visibility ( mi km ) Precip ( " mm )
1:15 am 01:15 Cloudy with Nearby Thunderstorms 52 11 39 4 62 62 SE 13 20 30.12 1020 10 16.09344 0 0
1:35 am 01:35 Cloudy 52 11 39 4 62 62 ESE 13 20 30.12 1020 10 16.09344 0 0
1:55 am 01:55 Cloudy 50 10 39 4 67 67 ESE 13 20 30.15 1021 10 16.09344 0 0
2:15 am 02:15 Cloudy 50 10 39 4 67 67 ESE 10 17 30.15 1021 10 16.09344 0 0
2:35 am 02:35 Cloudy 50 10 39 4 67 67 ESE 12 19 30.12 1020 10 16.09344 0 0
2:55 am 02:55 Cloudy with Light Rain 48 9 41 5 76 76 SE 9 15 30.15 1021 10 16.09344 0 0
3:15 am 03:15 Cloudy with Light Thunderstorms 48 9 43 6 82 82 ESE 10 17 30.15 1021 10 16.09344 0.02 0.508
3:35 am 03:35 Cloudy with Thunderstorms 48 9 43 6 82 82 ESE 13 20 30.12 1020 10 16.09344 0.06 1.524
4:15 am 04:15 Cloudy 48 9 43 6 82 82 ESE 13 20 30.12 1020 10 16.09344 0 0
4:55 am 04:55 Cloudy 46 8 43 6 87 87 ESE 8 13 30.15 1021 10 16.09344 0.01 0.254
5:15 am 05:15 Cloudy 46 8 43 6 87 87 ESE 8 13 30.15 1021 10 16.09344 0 0
5:35 am 05:35 Cloudy 46 8 43 6 87 87 SE 9 15 30.15 1021 10 16.09344 0 0
5:55 am 05:55 Cloudy 46 8 43 6 87 87 ESE 13 20 30.15 1021 10 16.09344 0 0
6:15 am 06:15 Cloudy with Rain 46 8 43 6 87 87 ESE 17 28 30.12 1020 7 11.265408 0.01 0.254
6:35 am 06:35 Cloudy with Light Rain 46 8 43 6 87 87 ESE 16 26 30.12 1020 10 16.09344 0.03 0.762
6:55 am 06:55 Cloudy 46 8 43 6 87 87 ESE 9 15 30.12 1020 10 16.09344 0.03 0.762
7:15 am 07:15 Cloudy with Light Rain 46 8 43 6 87 87 ESE 6 9 30.12 1020 10 16.09344 0 0
7:35 am 07:35 Cloudy with Light Rain 46 8 43 6 87 87 ESE 8 13 30.12 1020 10 16.09344 0.01 0.254
7:55 am 07:55 Cloudy with Light Rain 46 8 43 6 87 87 SE 9 15 30.12 1020 10 16.09344 0.02 0.508
8:15 am 08:15 Cloudy with Light Drizzle 46 8 43 6 87 87 ESE 9 15 30.12 1020 10 16.09344 0 0
8:35 am 08:35 Cloudy with Light Rain 46 8 43 6 87 87 SE 8 13 30.15 1021 10 16.09344 0 0
8:55 am 08:55 Cloudy with Rain 46 8 43 6 87 87 SE 5 7 30.15 1021 7 11.265408 0.01 0.254
9:35 am 09:35 Cloudy with Light Rain 46 8 45 7 93 93 SE 9 15 30.15 1021 7 11.265408 0.08 2.032
9:55 am 09:55 Cloudy with Light Drizzle 46 8 45 7 93 93 ESE 10 17 30.15 1021 10 16.09344 0.09 2.286
10:15 am 10:15 Cloudy with Drizzle 46 8 45 7 93 93 ESE 10 17 30.15 1021 10 16.09344 0 0
10:35 am 10:35 Cloudy with Rain 46 8 45 7 93 93 ESE 13 20 30.15 1021 5 8.04672 0.06 1.524
10:55 am 10:55 Cloudy with Light Rain 46 8 45 7 93 93 E 14 22 30.12 1020 7 11.265408 0.07 1.778
11:15 am 11:15 Cloudy 46 8 45 7 93 93 ESE 14 22 30.12 1020 10 16.09344 0 0
11:35 am 11:35 Cloudy 46 8 45 7 93 93 E 13 20 30.12 1020 10 16.09344 0 0
11:55 am 11:55 Cloudy 46 8 45 7 93 93 ESE 10 17 30.12 1020 10 16.09344 0 0
12:15 pm 12:15 Cloudy 48 9 45 7 87 87 ESE 10 17 30.12 1020 10 16.09344 0 0
12:35 pm 12:35 Cloudy 48 9 45 7 87 87 ESE 12 19 30.12 1020 10 16.09344 0 0
12:55 pm 12:55 Cloudy 48 9 45 7 87 87 ESE 12 19 30.12 1020 10 16.09344 0 0
1:15 pm 13:15 Cloudy 48 9 45 7 87 87 ESE 10 17 30.12 1020 10 16.09344 0 0
1:35 pm 13:35 Cloudy 50 10 46 8 88 88 ESE 14 22 30.12 1020 10 16.09344 0 0
1:55 pm 13:55 Cloudy 52 11 46 8 82 82 ESE 13 20 30.06 1018 10 16.09344 0 0
2:15 pm 14:15 Cloudy 54 12 46 8 77 77 ESE 13 20 30.06 1018 10 16.09344 0 0
2:35 pm 14:35 Cloudy 54 12 45 7 72 72 ESE 14 22 30.06 1018 10 16.09344 0 0
2:55 pm 14:55 Cloudy 55 13 45 7 67 67 SE 14 22 30 1016 10 16.09344 0 0
3:15 pm 15:15 Cloudy 55 13 45 7 67 67 ESE 14 22 30 1016 10 16.09344 0 0
3:35 pm 15:35 Cloudy 57 14 45 7 63 63 ESE 16 26 30 1016 10 16.09344 0 0
3:55 pm 15:55 Cloudy 55 13 43 6 63 63 SE 13 20 30 1016 10 16.09344 0 0
4:15 pm 16:15 Cloudy 55 13 45 7 67 67 SE 14 22 30 1016 10 16.09344 0 0
4:35 pm 16:35 Cloudy 55 13 45 7 67 67 ESE 13 20 30 1016 10 16.09344 0 0
4:55 pm 16:55 Cloudy 55 13 43 6 63 63 SE 13 20 30 1016 10 16.09344 0 0
5:15 pm 17:15 Cloudy 55 13 43 6 63 63 ESE 9 15 30 1016 10 16.09344 0 0
5:35 pm 17:35 Cloudy 55 13 43 6 63 63 ESE 13 20 30 1016 10 16.09344 0 0
5:55 pm 17:55 Cloudy 55 13 43 6 63 63 SE 10 17 30.06 1018 10 16.09344 0 0
6:15 pm 18:15 Cloudy 55 13 43 6 63 63 SE 7 11 30.06 1018 10 16.09344 0 0
6:35 pm 18:35 Cloudy 55 13 43 6 63 63 SE 5 7 30.06 1018 10 16.09344 0 0
6:55 pm 18:55 Cloudy 55 13 45 7 67 67 E 5 7 30.06 1018 10 16.09344 0 0
7:15 pm 19:15 Cloudy 55 13 45 7 67 67 E 5 7 30.06 1018 10 16.09344 0 0
7:35 pm 19:35 Cloudy 54 12 45 7 72 72 ESE 6 9 30.06 1018 10 16.09344 0 0
7:55 pm 19:55 Cloudy 54 12 45 7 72 72 E 6 9 30.06 1018 10 16.09344 0 0
8:15 pm 20:15 Cloudy 54 12 45 7 72 72 ESE 3 6 30.09 1019 10 16.09344 0 0
8:35 pm 20:35 Cloudy 54 12 45 7 72 72 E 7 11 30.09 1019 10 16.09344 0 0
8:55 pm 20:55 Cloudy 54 12 45 7 72 72 E 7 11 30.09 1019 10 16.09344 0 0
9:15 pm 21:15 Cloudy 54 12 43 6 67 67 E 5 7 30.09 1019 10 16.09344 0 0
9:35 pm 21:35 Cloudy 54 12 43 6 67 67 E 10 17 30.09 1019 10 16.09344 0 0
9:55 pm 21:55 Cloudy 54 12 43 6 67 67 ESE 7 11 30.09 1019 10 16.09344 0 0
10:15 pm 22:15 Cloudy 54 12 43 6 67 67 ESE 7 11 30.09 1019 10 16.09344 0 0
10:35 pm 22:35 Cloudy 54 12 41 5 63 63 ESE 7 11 30.12 1020 10 16.09344 0 0
10:55 pm 22:55 Cloudy 54 12 41 5 63 63 ESE 8 13 30.12 1020 10 16.09344 0 0
11:15 pm 23:15 Cloudy 54 12 39 4 58 58 ESE 8 13 30.12 1020 10 16.09344 0 0
11:35 pm 23:35 Cloudy 54 12 39 4 58 58 ESE 8 13 30.09 1019 10 16.09344 0 0
11:55 pm 23:55 Cloudy 54 12 39 4 58 58 ESE 8 13 30.09 1019 10 16.09344 0 0

Powered by AerisWeather